Location: Arpaise
(41.0333°N, 14.7333°E)
Time: 08:02:48
(UTC+00:00)

Cosmos 1125 Rocket - Pass Details

Date: 05 July 2020
Orbit: 757 x 780 km, 74.0° (Epoch: 05 August)

Event Time Altitude Azimuth Distance (km) Brightness Sun altitude
Rises 19:45:17 0° 336° (NNW) 3,241 8.1 -11.1°
Reaches altitude 10° 19:47:41 10° 333° (NNW) 2,315 7.3 -11.5°
Maximum altitude 19:52:50 59° 255° (WSW) 891 4.0 -12.1°
Drops below altitude 10° 19:57:59 10° 177° (S) 2,314 5.5 -12.8°
Enters shadow 19:58:05 10° 177° (S) 2,348 5.6 -12.8°
